Regional Weather Roundup
Issued by NWS

Home | Current Version | Previous Version | Text Only | Print | Product List | Glossary Off
Versions: 1 2 3 4 5 6 7 8 9 10 11 12 13 14 15 16 17 18 19 20 21 22 23 24 25 26 27 28 29 30 31 32 33 34 35 36 37 38 39 40 41 42 43 44 45 46 47 48 49 50

000
ASUS43 KLOT 282309
RWRIL

ILLINOIS REGIONAL WEATHER ROUNDUP
NATIONAL WEATHER SERVICE CHICAGO/ROMEOVILLE IL
600 PM CDT SUN AUG 28 2016

NOTE: "FAIR" INDICATES FEW OR NO CLOUDS BELOW 12,000 FEET WITH NO
SIGNIFICANT WEATHER AND/OR OBSTRUCTIONS TO VISIBILITY.

* THESE STATIONS ARE NOT UNDER NWS QUALITY CONTROL. THEY ALSO MAY NOT
  REPORT WEATHER SUCH AS PRECIPITATION OR FOG.

ILZ001-002-007-009-015-016-024-290000-
NORTHWEST ILLINOIS

CITY           SKY/WX    TMP DP  RH WIND       PRES   REMARKS
MOLINE         RAIN      75  69  81 E9        30.12R
STERLING*      RAIN      71  70  96 CALM      30.18S
SAVANNA*       PTSUNNY   81  69  68 S22G31    30.16R HX  84
$$

ILZ003-004-008-010-011-017-018-290000-
NORTH CENTRAL ILLINOIS

CITY           SKY/WX    TMP DP  RH WIND       PRES   REMARKS
ROCKFORD       CLOUDY    81  71  71 SE15G21   30.17R HX  85
FREEPORT*      MOSUNNY   82  70  68 E5        30.17S HX  85
ROCHELLE*      CLOUDY    73  71  92 CALM      30.18R
DE KALB*       CLOUDY    75  71  87 S7        30.18S
$$

ILZ005-006-012>014-019>023-290000-
NORTHEAST ILLINOIS

CITY           SKY/WX    TMP DP  RH WIND       PRES   REMARKS
CHICAGO-OHARE  CLOUDY    77  69  76 E8        30.17S
CHICAGO-MIDWAY CLOUDY    78  68  71 E10       30.17R HX  80
AURORA         PTSUNNY   78  72  81 S6        30.17S HX  80
LANSING*       CLOUDY    74  73  93 NE8       30.17S
JOLIET*        CLOUDY    76  74  93 N3        30.17R
WAUKEGAN       MOSUNNY   73  68  84 E9        30.18S
DUPAGE AIRPORT CLOUDY    80  69  69 E5        30.16S HX  83
KANKAKEE*      LGT RAIN  74  73  95 CALM      30.17R
WHEELING       CLOUDY    76  69  79 NE5       30.19R
MORRIS*        CLOUDY    73  71  94 CALM      30.16R
ROMEOVILLE*    CLOUDY    76  75  96 CALM      30.17R
$$

LMZ740>746-290000-
SOUTHERN LAKE MICHIGAN

STATION/POSITION SKY/WX   TEMP    WIND        PRES    VSBY  WAVE
                          AIR SEA DIR/SP/G                  HT/PER
                          (F)     (DEG/KT/KT) (MB)    (MI)  (FT/S)
SOUTHERN BUOY              73 76   40/  8/ 10 1021.7S         1
WILMETTE HARBOR            73 71   60/  6/  8   N/A           1/ 3
HARRISON CRIB              74      30/  8/  8   N/A
BURNHAM HARBOR             73     360/  3/  7   N/A
CALUMET HARBOR             74                 1021.0F
BURNS HARBOR               75      70/  9/ 13 1021.7F
MICHIGAN CITY              74      30/ 10/ 11   N/A
MICHIGAN CITY 6N           75 77   50/ 10/ 10   N/A           1/ 3
ST. JOSEPH                 75 75   30/ 10/ 12 1021.2S         2/ 2
$$

ILZ025>027-034>036-040-047-049-050-058-095>099-290000-
WEST-CENTRAL ILLINOIS

CITY           SKY/WX    TMP DP  RH WIND       PRES   REMARKS
QUINCY         PTSUNNY   86  72  62 NE3       30.10F HX  92
GALESBURG*     CLOUDY    80  72  75 E5        30.13F HX  84
MACOMB*        MOSUNNY   84  74  72 SE7       30.14R HX  91
JACKSONVILLE*  PTSUNNY   84  76  75 NE5       30.11S HX  92
PITTSFIELD*    MOSUNNY   85  76  75 NE6       30.11F HX  94
$$

ILZ028>032-037-038-041>044-048-051>054-059>061-290000-
CENTRAL ILLINOIS

CITY           SKY/WX    TMP DP  RH WIND       PRES   REMARKS
PONTIAC        LGT RAIN  72  72 100 CALM      30.16F
BLOOMINGTON    CLOUDY    76  68  76 N12       30.17F
DECATUR        SUNNY     90  67  46 CALM      30.13R HX  93
PEORIA         MOSUNNY   77  72  84 E10       30.14F
LACON*         CLOUDY    75  69  83 S5        30.13F
LINCOLN*       MOSUNNY   78  72  81 NE8       30.14S HX  80
SPRINGFIELD    MOSUNNY   88  74  63 N6        30.12R HX  96
TAYLORVILLE    PTSUNNY   87  73  64 CALM      30.12R HX  94
$$

ILZ033-039-045-046-055>057-062-063-290000-
EAST-CENTRAL ILLINOIS

CITY           SKY/WX    TMP DP  RH WIND       PRES   REMARKS
CHAMPAIGN      MOSUNNY   87  72  60 E3        30.14S HX  93
RANTOUL*       HVY RAIN  81  72  75 CALM      30.16R HX  85
MATTOON        SUNNY     88  69  53 CALM      30.12S HX  92
PARIS*         SUNNY     88  75  65 CALM      30.14R HX  98
$$

ILZ079-100>102-290000-
SOUTHWEST ILLINOIS

CITY           SKY/WX    TMP DP  RH WIND       PRES   REMARKS
ALTON          MOSUNNY   88  73  62 E6        30.09S HX  96
BELLEVILLE     MOSUNNY   91  73  54 E5        30.07S HX  98
CAHOKIA*       SUNNY     92  70  48 E5        30.07S HX  97
SPARTA*        SUNNY     88  74  61 E5        30.08F HX  96
$$

ILZ064>066-069>071-074>076-080>082-084>086-088>090-092>094-290000-
SOUTH-CENTRAL ILLINOIS

CITY           SKY/WX    TMP DP  RH WIND       PRES   REMARKS
CARBONDALE     SUNNY     89  75  63 E8        30.07S HX  99
CAIRO*         SUNNY     89  78  71 E3        30.05S HX 103
EFFINGHAM*     SUNNY     89  76  65 CALM      30.13R HX  99
MARION         MOSUNNY   91  77  62 NE6       30.08F HX 105
MT. VERNON     SUNNY     88  73  62 NE5       30.09F HX  96
CENTRALIA*     RAIN      85  77  76 CALM      30.08S HX  96
SALEM*         SUNNY     89  74  61 NE3       30.10S HX  99
METROPOLIS*    SUNNY     89  76  65 E5        30.07S HX  99
$$

ILZ067-068-072-073-078-083-087-091-290000-
SOUTHEAST ILLINOIS

CITY           SKY/WX    TMP DP  RH WIND       PRES   REMARKS
LAWRENCEVILLE  CLOUDY    90  75  61 NE5       30.10S HX 100
FLORA*         MOSUNNY   86  75  70 CALM      30.10S HX  95
FAIRFIELD*     MOSUNNY   89  75  63 CALM      30.08F HX  98
HARRISBURG*    SUNNY     90  75  61 E3        30.08S HX  99
ROBINSON*      MOSUNNY   83  78  85 NE3       30.11S HX  94
CARMI*         SUNNY     89  76  63 E3        30.07F HX 100
$$

ABBREVIATIONS USED IN REMARKS
   TC - TEMPERATURE IN CELSIUS
  WCI - WIND CHILL INDEX
   HX - HEAT INDEX
  VSB - VISIBILITY
$$




USA.gov is the U.S. government's official web portal to all federal, state and local government web resources and services.